| time (UTC) | temp F | wind direction | speed MPH | gust MPH | rain 1hr in | rain 24hr in | rain mn in | humidity % | barometer mb |
| 20260906055900 | 56 | 285 | 0.0 | 0.0 | 0.00 | 0.00 | 0.00 | 99 | 1017.6 |
| 20260906055355 | 56 | 290 | 0.0 | 0.0 | 0.00 | 0.00 | 0.00 | 99 | 1017.7 |
| 20260906054850 | 56 | 289 | 0.0 | 0.0 | 0.00 | 0.00 | 0.00 | 99 | 1017.4 |
| 20260906054345 | 56 | 267 | 0.0 | 0.0 | 0.00 | 0.00 | 0.00 | 99 | 1017.2 |
| 20260906053841 | 56 | 280 | 0.0 | 0.0 | 0.00 | 0.00 | 0.00 | 99 | 1017.2 |
| 20260906053337 | 56 | 316 | 0.0 | 0.0 | 0.00 | 0.00 | 0.00 | 99 | 1017.4 |
| 20260906052832 | 56 | 327 | 0.0 | 0.0 | 0.00 | 0.00 | 0.00 | 99 | 1017.4 |
| 20260906052329 | 56 | 346 | 0.0 | 0.0 | 0.00 | 0.00 | 0.00 | 99 | 1017.5 |
| 20260906051825 | 56 | 338 | 0.0 | 0.0 | 0.00 | 0.00 | 0.00 | 99 | 1017.5 |
| 20260906051325 | 55 | 304 | 0.0 | 0.0 | 0.00 | 0.00 | 0.00 | 99 | 1017.5 |
| 20260906050821 | 56 | 303 | 0.0 | 0.0 | 0.00 | 0.00 | 0.00 | 99 | 1017.5 |
| 20260906050316 | 56 | 303 | 0.0 | 0.0 | 0.00 | 0.00 | 0.00 | 99 | 1017.8 |
| 20260906045814 | 56 | 301 | 0.0 | 0.0 | 0.00 | 0.00 | 0.00 | 99 | 1017.8 |
| 20260906045309 | 56 | 301 | 0.0 | 0.0 | 0.00 | 0.00 | 0.00 | 99 | 1017.8 |
| 20260906044805 | 56 | 303 | 0.0 | 0.0 | 0.00 | 0.00 | 0.00 | 99 | 1017.6 |
| 20260906044300 | 56 | 296 | 0.0 | 0.0 | 0.00 | 0.00 | 0.00 | 99 | 1017.8 |
| 20260906043755 | 56 | 297 | 0.0 | 0.0 | 0.00 | 0.00 | 0.00 | 99 | 1017.5 |
| 20260906043252 | 56 | 292 | 0.0 | 0.0 | 0.00 | 0.00 | 0.00 | 99 | 1017.5 |
| 20260906042751 | 56 | 314 | 0.0 | 0.0 | 0.00 | 0.00 | 0.00 | 99 | 1017.5 |
| 20260906042250 | 56 | 314 | 0.0 | 0.0 | 0.00 | 0.00 | 0.00 | 99 | 1017.4 |
| 20260906041746 | 56 | 317 | 0.0 | 0.0 | 0.00 | 0.00 | 0.00 | 99 | 1017.1 |
| 20260906041241 | 56 | 317 | 0.0 | 0.0 | 0.00 | 0.00 | 0.00 | 99 | 1017.4 |
| 20260906040736 | 57 | 317 | 0.0 | 0.0 | 0.00 | 0.00 | 0.00 | 99 | 1017.2 |
| 20260906040231 | 57 | 334 | 0.0 | 0.0 | 0.00 | 0.00 | 0.00 | 99 | 1017.2 |
| 20260906035726 | 57 | 303 | 0.0 | 0.0 | 0.00 | 0.00 | 0.00 | 99 | 1017.2 |
| 20260906035217 | 57 | 298 | 0.0 | 0.0 | 0.00 | 0.00 | 0.00 | 99 | 1017.2 |
| 20260906034716 | 57 | 312 | 0.0 | 0.0 | 0.00 | 0.00 | 0.00 | 99 | 1017.2 |
| 20260906034211 | 58 | 312 | 0.0 | 0.0 | 0.00 | 0.00 | 0.00 | 98 | 1017.4 |
| 20260906033707 | 58 | 325 | 0.0 | 0.0 | 0.00 | 0.00 | 0.00 | 98 | 1017.4 |
| 20260906033207 | 58 | 325 | 0.0 | 0.0 | 0.00 | 0.00 | 0.00 | 97 | 1016.9 |
| 20260906032704 | 58 | 338 | 0.0 | 0.0 | 0.00 | 0.00 | 0.00 | 97 | 1017.1 |
| 20260906032158 | 59 | 292 | 0.0 | 0.0 | 0.00 | 0.00 | 0.00 | 96 | 1017.0 |
| 20260906031653 | 59 | 295 | 0.0 | 0.0 | 0.00 | 0.00 | 0.00 | 95 | 1017.1 |
| 20260906031149 | 60 | 284 | 0.0 | 0.0 | 0.00 | 0.00 | 0.00 | 94 | 1017.1 |
| 20260906030648 | 60 | 278 | 0.0 | 0.0 | 0.00 | 0.00 | 0.00 | 93 | 1017.0 |
| 20260906030144 | 60 | 304 | 0.0 | 0.0 | 0.00 | 0.00 | 0.00 | 92 | 1016.7 |
| 20260906025643 | 60 | 297 | 0.0 | 0.0 | 0.00 | 0.00 | 0.00 | 92 | 1017.0 |
| 20260906025142 | 60 | 282 | 0.0 | 0.0 | 0.00 | 0.00 | 0.00 | 91 | 1016.8 |
| 20260906024636 | 61 | 300 | 0.0 | 0.0 | 0.00 | 0.00 | 0.00 | 90 | 1016.9 |
| 20260906024131 | 61 | 326 | 0.0 | 0.0 | 0.00 | 0.00 | 0.00 | 89 | 1016.9 |
| 20260906023627 | 61 | 303 | 0.0 | 0.0 | 0.00 | 0.00 | 0.00 | 89 | 1016.9 |
| 20260906023127 | 61 | 316 | 0.0 | 0.0 | 0.00 | 0.00 | 0.00 | 89 | 1016.8 |
| 20260906022622 | 62 | 331 | 0.0 | 0.0 | 0.00 | 0.00 | 0.00 | 88 | 1016.8 |
| 20260906022118 | 62 | 329 | 0.0 | 0.0 | 0.00 | 0.00 | 0.00 | 88 | 1016.8 |
| 20260906021613 | 62 | 345 | 0.0 | 0.0 | 0.00 | 0.00 | 0.00 | 87 | 1017.0 |
| 20260906021112 | 63 | 314 | 0.0 | 0.0 | 0.00 | 0.00 | 0.00 | 86 | 1016.9 |
| 20260906020612 | 63 | 333 | 0.0 | 0.0 | 0.00 | 0.00 | 0.00 | 87 | 1016.9 |
| 20260906020107 | 63 | 14 | 0.0 | 0.0 | 0.00 | 0.00 | 0.00 | 87 | 1016.6 |
| 20260906015605 | 63 | 312 | 0.0 | 0.0 | 0.00 | 0.00 | 0.00 | 86 | 1016.8 |
| 20260906015059 | 63 | 305 | 0.0 | 0.0 | 0.00 | 0.00 | 0.00 | 86 | 1016.6 |
| 20260906014554 | 63 | 344 | 0.0 | 0.0 | 0.00 | 0.00 | 0.00 | 85 | 1016.8 |
| 20260906014051 | 64 | 249 | 0.0 | 0.0 | 0.00 | 0.00 | 0.00 | 85 | 1016.7 |
| 20260906013545 | 64 | 327 | 0.0 | 0.0 | 0.00 | 0.00 | 0.00 | 84 | 1016.5 |
| 20260906013041 | 64 | 322 | 0.0 | 0.0 | 0.00 | 0.00 | 0.00 | 84 | 1016.6 |
| 20260906012536 | 64 | 322 | 0.0 | 1.0 | 0.00 | 0.00 | 0.00 | 84 | 1016.4 |
| 20260906012035 | 64 | 342 | 0.0 | 0.0 | 0.00 | 0.00 | 0.00 | 83 | 1016.4 |
| 20260906011532 | 65 | 299 | 0.0 | 0.0 | 0.00 | 0.00 | 0.00 | 82 | 1016.4 |
| 20260906011031 | 66 | 307 | 0.0 | 0.0 | 0.00 | 0.00 | 0.00 | 80 | 1016.1 |
| 20260906010527 | 66 | 348 | 0.0 | 0.0 | 0.00 | 0.00 | 0.00 | 79 | 1016.2 |
| 20260906010023 | 67 | 336 | 0.0 | 0.0 | 0.00 | 0.00 | 0.00 | 79 | 1016.1 |
| 20260906005522 | 67 | 353 | 0.0 | 0.0 | 0.00 | 0.00 | 0.00 | 78 | 1016.0 |
| 20260906005020 | 67 | 333 | 0.0 | 0.0 | 0.00 | 0.00 | 0.00 | 77 | 1015.9 |
| 20260906004515 | 68 | 355 | 0.0 | 0.0 | 0.00 | 0.00 | 0.00 | 76 | 1016.1 |
| 20260906004010 | 68 | 48 | 0.0 | 0.0 | 0.00 | 0.00 | 0.00 | 76 | 1016.0 |
| 20260906003505 | 68 | 25 | 0.0 | 0.0 | 0.00 | 0.00 | 0.00 | 76 | 1015.9 |
| 20260906003000 | 68 | 94 | 0.0 | 1.0 | 0.00 | 0.00 | 0.00 | 76 | 1016.0 |
| 20260906002455 | 69 | 22 | 0.0 | 0.0 | 0.00 | 0.00 | 0.00 | 76 | 1015.9 |
| 20260906001950 | 69 | 50 | 0.0 | 0.0 | 0.00 | 0.00 | 0.00 | 75 | 1015.7 |
| 20260906001446 | 70 | 83 | 0.0 | 1.0 | 0.00 | 0.00 | 0.00 | 75 | 1015.9 |
| 20260906000940 | 70 | 50 | 0.0 | 0.0 | 0.00 | 0.00 | 0.00 | 75 | 1015.8 |
| 20260906000436 | 70 | 54 | 0.0 | 0.0 | 0.00 | 0.00 | 0.00 | 74 | 1015.8 |
| 20260905235931 | 71 | 31 | 0.0 | 0.0 | 0.00 | 0.00 | 0.00 | 74 | 1015.8 |
| 20260905235431 | 71 | 72 | 0.0 | 0.0 | 0.00 | 0.00 | 0.00 | 74 | 1015.6 |
| 20260905234926 | 71 | 66 | 1.0 | 2.0 | 0.00 | 0.00 | 0.00 | 73 | 1015.8 |
| 20260905234421 | 72 | 95 | 0.0 | 0.0 | 0.00 | 0.00 | 0.00 | 74 | 1015.7 |
| 20260905233915 | 73 | 333 | 0.0 | 0.0 | 0.00 | 0.00 | 0.00 | 73 | 1015.6 |
| 20260905233411 | 73 | 97 | 0.0 | 1.0 | 0.00 | 0.00 | 0.00 | 72 | 1015.5 |
| 20260905232909 | 73 | 29 | 0.0 | 0.0 | 0.00 | 0.00 | 0.00 | 72 | 1015.4 |
| 20260905232406 | 74 | 29 | 0.0 | 0.0 | 0.00 | 0.00 | 0.00 | 72 | 1015.7 |
| 20260905231900 | 74 | 0 | 0.0 | 0.0 | 0.00 | 0.00 | 0.00 | 71 | 1015.4 |
| 20260905231356 | 74 | 66 | 0.0 | 0.0 | 0.00 | 0.00 | 0.00 | 71 | 1015.3 |
| 20260905230853 | 75 | 59 | 0.0 | 0.0 | 0.00 | 0.00 | 0.00 | 71 | 1015.7 |
| 20260905230350 | 75 | 71 | 0.0 | 1.0 | 0.00 | 0.00 | 0.00 | 71 | 1015.6 |
| 20260905225844 | 75 | 13 | 0.0 | 0.0 | 0.00 | 0.00 | 0.00 | 71 | 1015.4 |
| 20260905225339 | 75 | 41 | 0.0 | 0.0 | 0.00 | 0.00 | 0.00 | 72 | 1015.6 |
| 20260905224834 | 75 | 58 | 0.0 | 0.0 | 0.00 | 0.00 | 0.00 | 71 | 1015.4 |
| 20260905224330 | 75 | 57 | 0.0 | 1.0 | 0.00 | 0.00 | 0.00 | 70 | 1015.1 |
| 20260905223824 | 76 | 48 | 0.0 | 0.0 | 0.00 | 0.00 | 0.00 | 70 | 1015.0 |
| 20260905223322 | 77 | 349 | 1.0 | 1.0 | 0.00 | 0.00 | 0.00 | 69 | 1015.0 |
| 20260905222817 | 77 | 8 | 0.0 | 0.0 | 0.00 | 0.00 | 0.00 | 69 | 1015.1 |
| 20260905222316 | 77 | 72 | 1.0 | 3.0 | 0.00 | 0.00 | 0.00 | 68 | 1015.4 |
| 20260905221812 | 76 | 314 | 0.0 | 0.0 | 0.00 | 0.00 | 0.00 | 71 | 1015.2 |
| 20260905221309 | 76 | 58 | 0.0 | 0.0 | 0.00 | 0.00 | 0.00 | 70 | 1015.1 |
| 20260905220804 | 77 | 67 | 0.0 | 1.0 | 0.00 | 0.00 | 0.00 | 68 | 1015.1 |
| 20260905220300 | 78 | 78 | 3.0 | 5.0 | 0.00 | 0.00 | 0.00 | 67 | 1014.8 |
| 20260905215759 | 78 | 114 | 3.0 | 5.0 | 0.00 | 0.00 | 0.00 | 65 | 1014.8 |
| 20260905215255 | 78 | 79 | 0.0 | 1.0 | 0.00 | 0.00 | 0.00 | 66 | 1014.8 |
| 20260905214751 | 77 | 95 | 0.0 | 1.0 | 0.00 | 0.00 | 0.00 | 66 | 1014.8 |
| 20260905214246 | 78 | 36 | 2.0 | 3.0 | 0.00 | 0.00 | 0.00 | 65 | 1014.4 |
| 20260905213741 | 78 | 331 | 0.0 | 1.0 | 0.00 | 0.00 | 0.00 | 68 | 1014.5 |
| 20260905213238 | 78 | 91 | 1.0 | 1.0 | 0.00 | 0.00 | 0.00 | 67 | 1014.7 |
| 20260905212733 | 78 | 70 | 0.0 | 0.0 | 0.00 | 0.00 | 0.00 | 68 | 1014.8 |
| 20260905212232 | 77 | 77 | 0.0 | 0.0 | 0.00 | 0.00 | 0.00 | 69 | 1014.9 |
| 20260905211731 | 77 | 62 | 0.0 | 0.0 | 0.00 | 0.00 | 0.00 | 68 | 1015.1 |
| 20260905211227 | 78 | 81 | 0.0 | 0.0 | 0.00 | 0.00 | 0.00 | 68 | 1014.8 |
| 20260905210724 | 78 | 69 | 1.0 | 2.0 | 0.00 | 0.00 | 0.00 | 66 | 1014.8 |
| 20260905210223 | 79 | 102 | 0.0 | 0.0 | 0.00 | 0.00 | 0.00 | 66 | 1014.8 |
| 20260905205722 | 78 | 4 | 6.0 | 8.0 | 0.00 | 0.00 | 0.00 | 65 | 1014.7 |
| 20260905205217 | 78 | 58 | 0.0 | 0.0 | 0.00 | 0.00 | 0.00 | 66 | 1014.7 |
| 20260905204717 | 77 | 72 | 0.0 | 0.0 | 0.00 | 0.00 | 0.00 | 68 | 1014.9 |
| 20260905204212 | 76 | 29 | 0.0 | 1.0 | 0.00 | 0.00 | 0.00 | 69 | 1014.9 |
| 20260905203706 | 77 | 88 | 1.0 | 2.0 | 0.00 | 0.00 | 0.00 | 68 | 1014.7 |
| 20260905203202 | 78 | 48 | 2.0 | 2.0 | 0.00 | 0.00 | 0.00 | 67 | 1014.9 |
| 20260905202657 | 79 | 41 | 0.0 | 1.0 | 0.00 | 0.00 | 0.00 | 65 | 1015.0 |
| 20260905202152 | 79 | 342 | 3.0 | 3.0 | 0.00 | 0.00 | 0.00 | 63 | 1014.9 |
| 20260905201648 | 77 | 37 | 0.0 | 0.0 | 0.00 | 0.00 | 0.00 | 67 | 1014.9 |
| 20260905201147 | 77 | 60 | 0.0 | 2.0 | 0.00 | 0.00 | 0.00 | 66 | 1014.9 |
| 20260905200643 | 78 | 87 | 0.0 | 1.0 | 0.00 | 0.00 | 0.00 | 64 | 1014.9 |
| 20260905200138 | 78 | 327 | 1.0 | 2.0 | 0.00 | 0.00 | 0.00 | 64 | 1015.0 |
| 20260905195636 | 77 | 27 | 0.0 | 1.0 | 0.00 | 0.00 | 0.00 | 66 | 1015.1 |
| 20260905195131 | 78 | 71 | 1.0 | 2.0 | 0.00 | 0.00 | 0.00 | 65 | 1015.0 |
| 20260905194626 | 80 | 82 | 0.0 | 0.0 | 0.00 | 0.00 | 0.00 | 64 | 1014.9 |
| 20260905194126 | 79 | 152 | 0.0 | 1.0 | 0.00 | 0.00 | 0.00 | 64 | 1014.9 |
| 20260905193621 | 78 | 80 | 0.0 | 0.0 | 0.00 | 0.00 | 0.00 | 65 | 1015.1 |
| 20260905193116 | 79 | 87 | 0.0 | 1.0 | 0.00 | 0.00 | 0.00 | 65 | 1015.2 |
| 20260905192612 | 78 | 109 | 0.0 | 1.0 | 0.00 | 0.00 | 0.00 | 67 | 1015.1 |
| 20260905192108 | 78 | 65 | 1.0 | 2.0 | 0.00 | 0.00 | 0.00 | 65 | 1015.5 |
| 20260905191606 | 80 | 133 | 7.0 | 10.0 | 0.00 | 0.00 | 0.00 | 64 | 1015.2 |
| 20260905191105 | 79 | 349 | 0.0 | 1.0 | 0.00 | 0.00 | 0.00 | 65 | 1015.3 |
| 20260905190603 | 78 | 78 | 1.0 | 1.0 | 0.00 | 0.00 | 0.00 | 64 | 1015.4 |
| 20260905185602 | 79 | 45 | 1.0 | 2.0 | 0.00 | 0.00 | 0.00 | 64 | 1015.3 |
| 20260905185056 | 79 | 63 | 0.0 | 1.0 | 0.00 | 0.00 | 0.00 | 64 | 1015.5 |
| 20260905184551 | 78 | 7 | 2.0 | 2.0 | 0.00 | 0.00 | 0.00 | 66 | 1015.5 |
| 20260905184049 | 78 | 49 | 0.0 | 1.0 | 0.00 | 0.00 | 0.00 | 68 | 1015.8 |
| 20260905183544 | 78 | 48 | 0.0 | 0.0 | 0.00 | 0.00 | 0.00 | 65 | 1015.4 |
| 20260905183039 | 78 | 65 | 1.0 | 1.0 | 0.00 | 0.00 | 0.00 | 66 | 1015.2 |
| 20260905182538 | 77 | 329 | 3.0 | 5.0 | 0.00 | 0.00 | 0.00 | 68 | 1015.2 |
| 20260905182033 | 77 | 17 | 1.0 | 1.0 | 0.00 | 0.00 | 0.00 | 67 | 1015.4 |
| 20260905181528 | 79 | 33 | 0.0 | 1.0 | 0.00 | 0.00 | 0.00 | 67 | 1015.5 |
| 20260905181027 | 78 | 67 | 0.0 | 1.0 | 0.00 | 0.00 | 0.00 | 68 | 1015.5 |
| 20260905180522 | 78 | 55 | 0.0 | 1.0 | 0.00 | 0.00 | 0.00 | 67 | 1015.4 |
| 20260905180017 | 78 | 65 | 2.0 | 6.0 | 0.00 | 0.00 | 0.00 | 67 | 1015.3 |
| 20260905175516 | 79 | 305 | 2.0 | 3.0 | 0.00 | 0.00 | 0.00 | 65 | 1015.4 |
| 20260905175012 | 78 | 335 | 0.0 | 0.0 | 0.00 | 0.00 | 0.00 | 66 | 1015.3 |
| 20260905174508 | 79 | 86 | 0.0 | 0.0 | 0.00 | 0.00 | 0.00 | 68 | 1015.4 |
| 20260905174003 | 78 | 128 | 1.0 | 1.0 | 0.00 | 0.00 | 0.00 | 67 | 1015.3 |
| 20260905173459 | 79 | 91 | 5.0 | 7.0 | 0.00 | 0.00 | 0.00 | 67 | 1015.1 |
| 20260905172954 | 77 | 131 | 3.0 | 6.0 | 0.00 | 0.00 | 0.00 | 68 | 1015.2 |
| 20260905172452 | 77 | 62 | 1.0 | 5.0 | 0.00 | 0.00 | 0.00 | 68 | 1015.4 |
| 20260905171948 | 76 | 34 | 1.0 | 2.0 | 0.00 | 0.00 | 0.00 | 71 | 1015.4 |
| 20260905171444 | 77 | 178 | 2.0 | 3.0 | 0.00 | 0.00 | 0.00 | 71 | 1015.6 |
| 20260905170941 | 78 | 7 | 3.0 | 5.0 | 0.00 | 0.00 | 0.00 | 67 | 1015.4 |
| 20260905170437 | 79 | 63 | 0.0 | 0.0 | 0.00 | 0.00 | 0.00 | 67 | 1015.4 |
| 20260905165936 | 78 | 311 | 0.0 | 0.0 | 0.00 | 0.00 | 0.00 | 69 | 1015.3 |
| 20260905165431 | 77 | 66 | 0.0 | 0.0 | 0.00 | 0.00 | 0.00 | 70 | 1015.5 |
| 20260905164926 | 77 | 327 | 0.0 | 0.0 | 0.00 | 0.00 | 0.00 | 70 | 1015.3 |
| 20260905164420 | 76 | 83 | 0.0 | 0.0 | 0.00 | 0.00 | 0.00 | 69 | 1015.6 |
| 20260905163915 | 76 | 81 | 0.0 | 1.0 | 0.00 | 0.00 | 0.00 | 71 | 1015.5 |
| 20260905163412 | 76 | 65 | 1.0 | 1.0 | 0.00 | 0.00 | 0.00 | 72 | 1015.9 |
| 20260905162908 | 76 | 21 | 0.0 | 0.0 | 0.00 | 0.00 | 0.00 | 69 | 1015.6 |
| 20260905162403 | 77 | 46 | 0.0 | 0.0 | 0.00 | 0.00 | 0.00 | 70 | 1015.7 |
| 20260905161857 | 77 | 307 | 1.0 | 3.0 | 0.00 | 0.00 | 0.00 | 70 | 1015.4 |
| 20260905161356 | 76 | 330 | 0.0 | 1.0 | 0.00 | 0.00 | 0.00 | 69 | 1015.7 |
| 20260905160854 | 77 | 21 | 1.0 | 5.0 | 0.00 | 0.00 | 0.00 | 72 | 1015.6 |
| 20260905160349 | 77 | 250 | 0.0 | 0.0 | 0.00 | 0.00 | 0.00 | 72 | 1015.7 |
| 20260905155844 | 76 | 30 | 0.0 | 0.0 | 0.00 | 0.00 | 0.00 | 74 | 1015.4 |
| 20260905155343 | 76 | 32 | 1.0 | 2.0 | 0.00 | 0.00 | 0.00 | 72 | 1015.6 |
| 20260905154842 | 75 | 50 | 5.0 | 8.0 | 0.00 | 0.00 | 0.00 | 73 | 1015.6 |
| 20260905154338 | 76 | 64 | 1.0 | 3.0 | 0.00 | 0.00 | 0.00 | 72 | 1015.7 |
| 20260905153833 | 75 | 75 | 0.0 | 0.0 | 0.00 | 0.00 | 0.00 | 74 | 1015.5 |
| 20260905153330 | 75 | 62 | 0.0 | 1.0 | 0.00 | 0.00 | 0.00 | 75 | 1015.4 |
| 20260905152829 | 76 | 47 | 0.0 | 0.0 | 0.00 | 0.00 | 0.00 | 73 | 1015.6 |
| 20260905152328 | 75 | 72 | 1.0 | 2.0 | 0.00 | 0.00 | 0.00 | 74 | 1015.5 |
| 20260905151824 | 75 | 68 | 0.0 | 1.0 | 0.00 | 0.00 | 0.00 | 75 | 1015.5 |
| 20260905151319 | 76 | 61 | 0.0 | 0.0 | 0.00 | 0.00 | 0.00 | 75 | 1015.4 |
| 20260905150814 | 75 | 24 | 0.0 | 0.0 | 0.00 | 0.00 | 0.00 | 75 | 1015.6 |
| 20260905150314 | 75 | 110 | 0.0 | 1.0 | 0.00 | 0.00 | 0.00 | 75 | 1015.6 |
| 20260905145810 | 75 | 44 | 0.0 | 0.0 | 0.00 | 0.00 | 0.00 | 77 | 1015.5 |
| 20260905145306 | 75 | 82 | 1.0 | 2.0 | 0.00 | 0.00 | 0.00 | 75 | 1015.4 |
| 20260905144804 | 73 | 61 | 2.0 | 6.0 | 0.00 | 0.00 | 0.00 | 76 | 1015.3 |
| 20260905144300 | 73 | 66 | 1.0 | 3.0 | 0.00 | 0.00 | 0.00 | 77 | 1015.5 |
| 20260905143758 | 73 | 98 | 2.0 | 5.0 | 0.00 | 0.00 | 0.00 | 77 | 1015.5 |
| 20260905143253 | 73 | 65 | 1.0 | 3.0 | 0.00 | 0.00 | 0.00 | 77 | 1015.3 |
| 20260905142751 | 73 | 65 | 4.0 | 7.0 | 0.00 | 0.00 | 0.00 | 76 | 1015.2 |
| 20260905142246 | 73 | 70 | 1.0 | 1.0 | 0.00 | 0.00 | 0.00 | 76 | 1015.4 |
| 20260905141742 | 73 | 71 | 2.0 | 3.0 | 0.00 | 0.00 | 0.00 | 78 | 1015.3 |
| 20260905141238 | 73 | 70 | 1.0 | 3.0 | 0.00 | 0.00 | 0.00 | 79 | 1015.2 |
| 20260905140733 | 72 | 69 | 1.0 | 2.0 | 0.00 | 0.00 | 0.00 | 79 | 1015.2 |
| 20260905140227 | 71 | 28 | 3.0 | 6.0 | 0.00 | 0.00 | 0.00 | 81 | 1015.1 |
| 20260905135726 | 71 | 95 | 3.0 | 6.0 | 0.00 | 0.00 | 0.00 | 81 | 1015.2 |
| 20260905135223 | 71 | 78 | 5.0 | 8.0 | 0.00 | 0.00 | 0.00 | 82 | 1015.1 |
| 20260905134722 | 71 | 66 | 2.0 | 2.0 | 0.00 | 0.00 | 0.00 | 85 | 1015.3 |
| 20260905134221 | 71 | 53 | 2.0 | 2.0 | 0.00 | 0.00 | 0.00 | 85 | 1015.2 |
| 20260905133716 | 70 | 48 | 1.0 | 2.0 | 0.00 | 0.00 | 0.00 | 87 | 1015.4 |
| 20260905133211 | 69 | 3 | 2.0 | 3.0 | 0.00 | 0.00 | 0.00 | 90 | 1015.4 |
| 20260905132710 | 69 | 86 | 2.0 | 2.0 | 0.00 | 0.00 | 0.00 | 91 | 1015.3 |
| 20260905132206 | 68 | 82 | 0.0 | 0.0 | 0.00 | 0.00 | 0.00 | 92 | 1015.5 |
| 20260905131701 | 68 | 39 | 1.0 | 2.0 | 0.00 | 0.00 | 0.00 | 93 | 1015.5 |
| 20260905131156 | 68 | 79 | 5.0 | 7.0 | 0.00 | 0.00 | 0.00 | 93 | 1015.3 |
| 20260905130650 | 68 | 107 | 3.0 | 5.0 | 0.00 | 0.00 | 0.00 | 93 | 1015.5 |
| 20260905130150 | 68 | 73 | 0.0 | 1.0 | 0.00 | 0.00 | 0.00 | 94 | 1015.2 |
| 20260905125644 | 68 | 81 | 2.0 | 3.0 | 0.00 | 0.00 | 0.00 | 94 | 1015.3 |
| 20260905125140 | 68 | 53 | 0.0 | 0.0 | 0.00 | 0.00 | 0.00 | 94 | 1015.5 |
| 20260905124636 | 68 | 60 | 2.0 | 2.0 | 0.00 | 0.00 | 0.00 | 94 | 1015.4 |
| 20260905124132 | 68 | 76 | 1.0 | 1.0 | 0.00 | 0.00 | 0.00 | 95 | 1015.1 |
| 20260905123627 | 68 | 65 | 1.0 | 1.0 | 0.00 | 0.00 | 0.00 | 95 | 1015.3 |
| 20260905123124 | 68 | 66 | 0.0 | 0.0 | 0.00 | 0.00 | 0.00 | 95 | 1015.2 |
| 20260905122619 | 68 | 75 | 0.0 | 0.0 | 0.00 | 0.00 | 0.00 | 96 | 1014.9 |
| 20260905122119 | 68 | 91 | 6.0 | 7.0 | 0.00 | 0.00 | 0.00 | 96 | 1014.9 |
| 20260905121614 | 67 | 78 | 1.0 | 3.0 | 0.00 | 0.00 | 0.00 | 96 | 1014.8 |
| 20260905121109 | 67 | 28 | 0.0 | 1.0 | 0.00 | 0.00 | 0.00 | 97 | 1015.0 |
| 20260905120608 | 67 | 64 | 4.0 | 5.0 | 0.00 | 0.00 | 0.00 | 97 | 1014.9 |
| 20260905120103 | 67 | 69 | 0.0 | 1.0 | 0.00 | 0.00 | 0.00 | 98 | 1014.9 |
| 20260905115602 | 67 | 74 | 2.0 | 3.0 | 0.00 | 0.00 | 0.00 | 98 | 1014.8 |
| 20260905115057 | 67 | 85 | 0.0 | 1.0 | 0.00 | 0.00 | 0.00 | 98 | 1014.7 |
| 20260905114556 | 67 | 60 | 0.0 | 0.0 | 0.00 | 0.00 | 0.00 | 98 | 1014.7 |
| 20260905114055 | 67 | 63 | 3.0 | 3.0 | 0.00 | 0.00 | 0.00 | 98 | 1014.6 |
| 20260905113550 | 67 | 78 | 1.0 | 1.0 | 0.00 | 0.00 | 0.00 | 99 | 1014.5 |
| 20260905113045 | 66 | 81 | 2.0 | 3.0 | 0.00 | 0.00 | 0.00 | 99 | 1014.6 |
| 20260905112541 | 67 | 27 | 1.0 | 2.0 | 0.00 | 0.00 | 0.00 | 99 | 1014.3 |
| 20260905112036 | 66 | 61 | 1.0 | 1.0 | 0.00 | 0.00 | 0.00 | 99 | 1014.3 |
| 20260905111531 | 66 | 70 | 2.0 | 2.0 | 0.00 | 0.00 | 0.00 | 99 | 1014.2 |
| 20260905111030 | 66 | 57 | 0.0 | 0.0 | 0.00 | 0.00 | 0.00 | 99 | 1014.3 |
| 20260905110529 | 66 | 145 | 2.0 | 2.0 | 0.00 | 0.00 | 0.00 | 99 | 1014.5 |
| 20260905110025 | 66 | 69 | 0.0 | 1.0 | 0.00 | 0.00 | 0.00 | 99 | 1014.5 |
| 20260905105519 | 66 | 74 | 3.0 | 5.0 | 0.00 | 0.00 | 0.00 | 99 | 1014.6 |
| 20260905105018 | 66 | 74 | 0.0 | 0.0 | 0.00 | 0.00 | 0.00 | 99 | 1014.6 |
| 20260905104515 | 66 | 29 | 0.0 | 0.0 | 0.00 | 0.00 | 0.00 | 99 | 1014.5 |
| 20260905104014 | 66 | 60 | 0.0 | 0.0 | 0.00 | 0.00 | 0.00 | 99 | 1014.6 |
| 20260905103509 | 66 | 316 | 0.0 | 0.0 | 0.00 | 0.00 | 0.00 | 99 | 1014.6 |
| 20260905103005 | 66 | 123 | 0.0 | 0.0 | 0.00 | 0.00 | 0.00 | 99 | 1014.3 |
| 20260905102501 | 66 | 26 | 0.0 | 0.0 | 0.00 | 0.00 | 0.00 | 99 | 1014.4 |
| 20260905101956 | 66 | 57 | 0.0 | 0.0 | 0.00 | 0.00 | 0.00 | 99 | 1014.3 |
| 20260905101455 | 66 | 51 | 1.0 | 2.0 | 0.00 | 0.00 | 0.00 | 99 | 1014.4 |
| 20260905100954 | 66 | 221 | 1.0 | 2.0 | 0.00 | 0.00 | 0.00 | 99 | 1014.4 |
| 20260905100450 | 66 | 42 | 0.0 | 1.0 | 0.00 | 0.00 | 0.00 | 99 | 1014.2 |
| 20260905095949 | 66 | 83 | 1.0 | 2.0 | 0.00 | 0.00 | 0.00 | 99 | 1014.4 |
| 20260905095444 | 66 | 51 | 1.0 | 3.0 | 0.00 | 0.00 | 0.00 | 99 | 1014.4 |
| 20260905094939 | 66 | 72 | 0.0 | 1.0 | 0.00 | 0.00 | 0.00 | 99 | 1014.4 |
| 20260905094435 | 66 | 72 | 0.0 | 0.0 | 0.00 | 0.00 | 0.00 | 99 | 1014.6 |
| 20260905093933 | 66 | 42 | 0.0 | 0.0 | 0.00 | 0.00 | 0.00 | 99 | 1014.5 |
| 20260905093429 | 66 | 74 | 0.0 | 0.0 | 0.00 | 0.00 | 0.00 | 99 | 1014.6 |
| 20260905092924 | 66 | 50 | 0.0 | 0.0 | 0.00 | 0.00 | 0.00 | 99 | 1014.5 |
| 20260905092420 | 66 | 89 | 0.0 | 0.0 | 0.00 | 0.00 | 0.00 | 99 | 1014.3 |
| 20260905091914 | 66 | 17 | 0.0 | 0.0 | 0.00 | 0.00 | 0.00 | 99 | 1014.3 |
| 20260905091409 | 66 | 353 | 0.0 | 0.0 | 0.00 | 0.00 | 0.00 | 99 | 1014.5 |
| 20260905090908 | 66 | 311 | 0.0 | 0.0 | 0.00 | 0.00 | 0.00 | 99 | 1014.5 |
| 20260905090404 | 66 | 152 | 0.0 | 0.0 | 0.00 | 0.00 | 0.00 | 99 | 1014.5 |
| 20260905085903 | 66 | 288 | 0.0 | 0.0 | 0.00 | 0.00 | 0.00 | 99 | 1014.5 |
| 20260905085357 | 66 | 4 | 0.0 | 0.0 | 0.00 | 0.00 | 0.00 | 99 | 1014.5 |
| 20260905084853 | 66 | 323 | 0.0 | 0.0 | 0.00 | 0.00 | 0.00 | 99 | 1014.5 |
| 20260905084352 | 66 | 8 | 0.0 | 0.0 | 0.00 | 0.00 | 0.00 | 99 | 1014.5 |
| 20260905083847 | 66 | 336 | 0.0 | 0.0 | 0.00 | 0.00 | 0.00 | 99 | 1014.2 |
| 20260905083343 | 66 | 314 | 0.0 | 0.0 | 0.00 | 0.00 | 0.00 | 99 | 1014.2 |
| 20260905082838 | 66 | 56 | 0.0 | 0.0 | 0.00 | 0.00 | 0.00 | 99 | 1014.2 |
| 20260905082334 | 66 | 53 | 0.0 | 0.0 | 0.00 | 0.00 | 0.00 | 99 | 1014.3 |
| 20260905081829 | 66 | 42 | 0.0 | 0.0 | 0.00 | 0.00 | 0.00 | 99 | 1014.7 |
| 20260905081324 | 66 | 326 | 0.0 | 0.0 | 0.00 | 0.00 | 0.00 | 99 | 1014.5 |
| 20260905080823 | 66 | 270 | 0.0 | 0.0 | 0.00 | 0.00 | 0.00 | 99 | 1014.5 |
| 20260905080318 | 66 | 80 | 1.0 | 1.0 | 0.00 | 0.00 | 0.00 | 99 | 1014.6 |
| 20260905075816 | 66 | 22 | 0.0 | 0.0 | 0.00 | 0.00 | 0.00 | 99 | 1014.5 |
| 20260905075311 | 66 | 277 | 0.0 | 0.0 | 0.00 | 0.00 | 0.00 | 99 | 1014.1 |
| 20260905074809 | 66 | 181 | 0.0 | 0.0 | 0.00 | 0.00 | 0.00 | 99 | 1014.4 |
| 20260905074305 | 66 | 42 | 0.0 | 0.0 | 0.00 | 0.00 | 0.00 | 99 | 1014.0 |
| 20260905073800 | 66 | 70 | 1.0 | 1.0 | 0.00 | 0.00 | 0.00 | 99 | 1014.2 |
| 20260905073255 | 66 | 89 | 0.0 | 1.0 | 0.00 | 0.00 | 0.00 | 99 | 1014.0 |
| 20260905072750 | 66 | 340 | 0.0 | 0.0 | 0.00 | 0.00 | 0.00 | 99 | 1014.1 |
| 20260905072246 | 66 | 63 | 0.0 | 0.0 | 0.00 | 0.00 | 0.00 | 99 | 1013.9 |
| 20260905071742 | 66 | 66 | 0.0 | 0.0 | 0.00 | 0.00 | 0.00 | 99 | 1013.9 |
| 20260905071238 | 66 | 308 | 0.0 | 0.0 | 0.00 | 0.00 | 0.00 | 99 | 1013.8 |
| 20260905070733 | 66 | 78 | 1.0 | 1.0 | 0.00 | 0.00 | 0.00 | 99 | 1013.9 |
| 20260905070229 | 66 | 70 | 0.0 | 0.0 | 0.00 | 0.00 | 0.00 | 99 | 1013.8 |
| 20260905065727 | 66 | 84 | 0.0 | 0.0 | 0.00 | 0.00 | 0.00 | 99 | 1013.7 |
| 20260905065221 | 66 | 49 | 0.0 | 0.0 | 0.00 | 0.00 | 0.00 | 99 | 1013.8 |
| 20260905064717 | 66 | 67 | 1.0 | 2.0 | 0.00 | 0.00 | 0.00 | 99 | 1013.7 |
| 20260905064213 | 66 | 11 | 1.0 | 2.0 | 0.00 | 0.00 | 0.00 | 99 | 1013.5 |
| 20260905063711 | 66 | 68 | 0.0 | 1.0 | 0.00 | 0.00 | 0.00 | 99 | 1013.9 |
| 20260905063207 | 66 | 308 | 0.0 | 0.0 | 0.00 | 0.00 | 0.00 | 99 | 1014.0 |
| 20260905062703 | 66 | 9 | 0.0 | 0.0 | 0.00 | 0.00 | 0.00 | 99 | 1014.0 |
| 20260905062202 | 66 | 52 | 0.0 | 0.0 | 0.00 | 0.00 | 0.00 | 99 | 1014.1 |
| 20260905061702 | 66 | 43 | 0.0 | 0.0 | 0.00 | 0.00 | 0.00 | 99 | 1013.9 |
| 20260905061156 | 66 | 43 | 0.0 | 1.0 | 0.00 | 0.00 | 0.00 | 99 | 1014.1 |
| 20260905060652 | 66 | 29 | 0.0 | 0.0 | 0.00 | 0.00 | 0.00 | 99 | 1014.2 |
| 20260905060148 | 66 | 32 | 0.0 | 1.0 | 0.00 | 0.00 | 0.00 | 99 | 1014.2 |